1495522801.03,55168,17.31,74044.0,10.13,-2.27,1.17,0,*6C
1495522802.26,55169,17.31,74046.8,10.15,-2.19,1.17,0,*66
1495522803.49,55170,17.31,74044.0,10.15,-2.19,1.13,0,*6A
1495522804.76,55171,17.31,74044.0,10.15,-2.03,1.33,0,*62
1495522805.97,55172,17.31,74042.3,10.17,-1.47,1.83,0,*6B
1495522807.19,55173,17.31,74046.3,10.17,-1.47,1.83,0,*6A
1495522808.39,55174,17.31,74044.0,10.21,-1.59,1.71,0,*6A
1495522809.6,55175,17.31,74044.5,10.21,-1.75,1.51,0,*67
1495522810.83,55176,17.31,74042.3,10.23,-1.99,1.41,0,*65
1495522812.09,55177,17.31,74044.8,10.23,-1.83,1.63,0,*6F
1495522813.35,55178,17.31,74044.8,10.23,-2.07,1.47,0,*69
1495522814.55,55179,17.31,74044.3,10.25,-1.79,1.85,0,*6A
1495522815.76,55180,17.31,74046.3,10.25,-1.43,2.27,0,*6E
1495522817.03,55181,17.31,74044.0,10.27,-1.39,2.51,0,*61
1495522818.26,55182,17.31,74046.5,10.31,-1.33,2.65,0,*68
1495522819.47,55183,17.31,74046.5,10.31,-1.59,2.65,0,*65
1495522820.7,55184,17.31,74046.8,10.35,-1.51,2.73,0,*69
1495522821.96,55185,17.31,74046.3,10.37,-0.89,3.49,0,*56
1495522823.17,55186,17.31,74046.0,10.39,-0.73,3.67,0,*52
1495522824.4,55187,17.31,74040.3,10.45,-0.69,3.67,0,*53
1495522825.61,55188,17.31,74046.5,10.45,-0.41,4.11,0,*50
1495522826.84,55189,17.31,74044.5,10.49,0.09,4.71,0,*4A
1495522828.09,55190,17.31,74044.3,10.53,0.25,5.05,0,*75
1495522829.31,55191,17.31,74040.8,10.57,0.41,5.29,0,*7C
1495522830.55,55192,17.31,74046.8,10.61,0.25,5.27,0,*76
1495522831.75,55193,17.31,74044.8,10.63,0.13,5.15,0,*71
1495522832.95,55194,17.31,74042.8,10.69,0.71,5.71,0,*7A
1495522834.15,55195,17.31,74046.8,10.77,1.85,6.75,0,*49
1495522835.4,55196,17.31,74046.5,10.79,1.51,6.35,0,*49
1495522836.6,55197,17.31,74042.0,10.85,1.43,6.25,0,*49
1495522837.83,55198,17.31,74040.5,10.91,2.39,7.37,0,*4F
1495522839.03,55199,17.31,74044.5,10.97,2.69,7.45,0,*48
1495522840.24,55200,17.31,74040.3,11.01,3.11,7.79,0,*44
1495522841.46,55201,17.31,74042.5,11.07,3.89,8.65,0,*40
1495522842.71,55202,17.31,74042.3,11.19,4.33,9.01,0,*49
1495522843.92,55203,17.31,74042.5,11.27,4.57,9.07,0,*41
1495522845.15,55204,17.31,74042.0,11.31,5.07,9.39,0,*48
1495522846.38,55205,17.31,74042.0,11.41,4.85,9.19,0,*47
1495522847.63,55206,17.31,74040.5,11.49,5.27,9.53,0,*4B
1495522848.84,55207,17.31,74044.8,11.57,5.41,9.47,0,*40
1495522850.05,55208,17.31,74044.3,11.63,5.81,9.67,0,*46
1495522851.24,55209,17.31,74042.0,11.69,5.99,9.63,0,*40
1495522852.46,55210,17.31,74042.5,11.75,6.33,9.75,0,*41
1495522853.67,55211,17.31,74040.3,11.81,5.93,9.07,0,*47
1495522854.91,55212,17.31,74040.8,11.91,6.03,9.19,0,*40
1495522856.14,55213,17.31,74044.3,11.95,6.83,9.77,0,*45
1495522857.38,55214,17.31,74042.3,12.05,6.87,9.43,0,*4B
1495522858.62,55215,17.31,74044.8,12.09,7.33,9.81,0,*46
1495522859.82,55216,17.31,74046.5,12.13,7.05,9.29,0,*49
1495522861.06,55217,17.31,74040.3,12.21,7.37,9.49,0,*4E
1495522862.27,55218,17.31,74042.8,12.27,7.11,9.03,0,*4D
1495522863.53,55219,17.31,74044.0,12.29,6.65,8.47,0,*41
1495522864.71,55220,17.31,74042.0,12.31,5.23,6.83,0,*45
1495522865.92,55221,17.31,74042.3,12.35,4.89,6.35,0,*4C
1495522867.12,55222,17.31,74044.5,12.35,5.19,6.61,0,*46
1495522868.3,55223,17.31,74046.0,12.35,5.07,6.25,0,*48
1495522869.49,55224,17.31,74044.0,12.35,5.11,6.25,0,*48
1495522870.69,55225,17.31,74042.3,12.37,4.33,5.29,0,*45
1495522871.9,55226,17.31,74042.8,12.37,5.11,6.11,0,*4F
1495522873.12,55227,17.31,74044.8,12.39,5.27,6.17,0,*43
1495522874.34,55228,17.31,74042.3,12.37,4.53,5.23,0,*44
1495522875.58,55229,17.31,74044.8,12.37,4.59,5.29,0,*45
1495522876.81,55230,17.31,74040.3,12.37,5.05,5.63,0,*4B
1495522878.02,55231,17.31,74042.3,12.39,5.05,5.63,0,*44
1495522879.21,55232,17.31,74044.3,12.39,5.11,5.63,0,*42
1495522880.41,55233,17.31,74044.0,12.37,5.15,5.63,0,*49
1495522881.62,55234,17.31,74044.8,12.37,4.89,5.29,0,*44
1495522882.85,55235,17.31,74046.5,12.37,4.81,5.27,0,*43
1495522884.06,55236,17.31,74044.3,12.37,4.81,5.15,0,*41
1495522885.32,55237,17.31,74046.0,12.37,4.31,4.59,0,*42
1495522886.5,55238,17.31,74046.3,12.35,5.07,5.37,0,*42
1495522887.69,55239,17.31,74042.0,12.35,5.19,5.45,0,*49
1495522888.87,55240,17.31,74042.3,12.35,4.57,4.85,0,*41
1495522890.09,55241,17.31,74044.3,12.33,4.11,4.33,0,*49
1495522891.33,55242,17.31,74046.0,12.33,4.45,4.71,0,*4D
1495522892.57,55243,17.31,74044.8,12.33,4.49,4.71,0,*40
1495522893.75,55244,17.31,74046.8,12.31,4.23,4.33,0,*4F
1495522895.01,55245,17.31,74046.0,12.29,3.79,4.01,0,*4E
1495522896.24,55246,17.31,74046.8,12.29,3.63,3.79,0,*4E
1495522897.48,55247,17.31,74046.5,12.27,3.67,3.79,0,*45
1495522898.71,55248,17.31,74046.0,12.23,3.45,3.37,0,*44
1495522899.97,55249,17.31,74044.5,12.21,3.71,3.79,0,*4A
1495522901.22,55250,17.31,74046.8,12.21,4.01,4.05,0,*4E
1495522902.43,55251,17.31,74044.8,12.19,3.59,3.67,0,*4D
1495522903.69,55252,17.31,74044.8,12.17,2.47,2.43,0,*49
1495522904.92,55253,17.31,74042.8,12.15,2.55,2.43,0,*49
1495522906.15,55254,17.31,74046.8,12.11,1.93,1.93,0,*4D
1495522907.41,55255,17.31,74046.0,12.09,1.85,1.85,0,*45
1495522908.65,55256,17.31,74046.8,12.07,2.43,2.43,0,*48
1495522909.85,55257,17.31,74044.8,12.01,2.35,2.35,0,*4F
1495522911.06,55258,17.31,74044.5,11.97,2.31,2.31,0,*4C
1495522912.29,55259,17.31,74046.8,11.97,2.43,2.35,0,*4C
1495522913.55,55260,17.31,74046.3,11.95,1.97,1.85,0,*46
1495522914.75,55261,17.31,74046.0,11.93,2.27,2.21,0,*44
1495522915.93,55262,17.31,74044.8,11.89,2.31,2.31,0,*4A
1495522917.16,55263,17.31,74046.3,11.87,2.91,2.85,0,*40
1495522918.39,55264,17.31,74044.0,11.85,2.69,2.59,0,*43
1495522919.6,55265,17.31,74046.8,11.85,2.81,2.65,0,*4B
1495522920.83,55266,17.31,74048.5,11.81,2.85,2.77,0,*4B
1495522922.07,55267,17.31,74046.5,11.79,2.73,2.61,0,*43
1495522923.34,55268,17.31,74050.0,11.79,3.23,3.07,0,*49
1495522924.6,55269,17.31,74046.8,11.79,3.37,3.37,0,*4E
1495522925.86,55270,17.31,74048.0,11.75,3.11,3.03,0,*49
1495522927.07,55271,17.31,74046.3,11.73,3.03,2.91,0,*47
1495522928.32,55272,17.31,74046.3,11.73,3.03,2.89,0,*4D
1495522929.58,55273,17.31,74046.8,11.71,3.11,3.11,0,*4D
1495522930.82,55274,17.31,74046.8,11.71,3.25,3.15,0,*49
1495522932.04,55275,17.31,74050.3,11.69,3.11,2.95,0,*4F
1495522933.27,55276,17.31,74046.8,11.71,3.37,3.25,0,*4B
1495522934.5,55277,17.31,74048.3,11.69,3.49,3.37,0,*49
1495522935.74,55278,17.31,74044.5,11.69,3.33,3.15,0,*4B
1495522936.98,55279,17.31,74050.8,11.69,3.37,3.33,0,*4A
1495522938.21,55280,17.31,74048.8,11.65,3.37,3.37,0,*44
1495522939.47,55281,17.31,74044.5,11.67,3.41,3.23,0,*43
1495522940.73,55282,17.31,74044.8,11.67,3.45,3.33,0,*45
1495522941.96,55283,17.31,74046.0,11.65,3.53,3.53,0,*47
1495522943.2,55284,17.31,74048.3,11.65,3.41,3.41,0,*40
1495522944.42,55285,17.31,74046.0,11.65,3.49,3.53,0,*4A
1495522945.66,55286,17.31,74046.0,11.65,3.79,3.79,0,*42
1495522946.9,55287,17.31,74048.8,11.67,3.75,3.81,0,*4A
1495522948.11,55288,17.31,74050.3,11.65,3.71,3.63,0,*4F
1495522949.31,55289,17.31,74048.8,11.65,3.37,3.29,0,*42
1495522950.53,55290,17.31,74048.8,11.63,3.25,3.37,0,*40
1495522951.76,55291,17.31,74050.0,11.63,2.89,2.89,0,*42
1495522953.02,55292,17.31,74046.3,11.61,2.73,2.77,0,*47
1495522954.24,55293,17.31,74048.3,11.59,2.85,2.85,0,*49
1495522955.48,55294,17.31,74048.0,11.59,2.13,2.17,0,*4A
1495522956.69,55295,17.31,74048.0,11.57,1.75,1.75,0,*41
1495522957.9,55296,17.31,74046.5,11.51,2.55,2.65,0,*47
1495522959.11,55297,17.31,74050.0,11.51,2.59,2.65,0,*4A
1495522960.32,55298,17.31,74050.0,11.51,3.19,3.29,0,*49
1495522961.53,55299,17.31,74046.0,11.51,2.69,2.65,0,*47
1495522962.79,55300,17.31,74048.0,11.49,2.09,2.09,0,*43
1495522964.0,55301,17.31,74046.5,11.47,2.27,2.13,0,*4B
1495522965.24,55302,17.31,74044.8,11.47,2.69,2.69,0,*4F
1495522966.47,55303,17.31,74048.3,11.47,2.77,2.77,0,*4E
1495522967.73,55304,17.31,74046.5,11.45,2.85,2.77,0,*46
1495522968.97,55305,17.31,74044.5,11.43,2.81,2.73,0,*41
1495522970.2,55306,17.31,74048.3,11.43,2.59,2.47,0,*40
1495522971.43,55307,17.31,74044.8,11.43,2.09,2.01,0,*46
1495522972.68,55308,17.31,74046.5,11.39,2.89,2.81,0,*44
1495522973.94,55309,17.31,74046.0,11.41,3.03,2.89,0,*41
1495522975.2,55310,17.31,74048.5,11.41,2.43,2.21,0,*4E
1495522976.43,55311,17.31,74050.0,11.39,2.21,1.93,0,*4E
1495522977.69,55312,17.31,74050.8,11.37,2.25,2.01,0,*4F
1495522978.91,55313,17.31,74050.3,11.35,2.85,2.65,0,*44
1495522980.17,55314,17.31,74048.8,11.37,2.73,2.47,0,*48
1495522981.41,55315,17.31,74050.0,11.39,3.03,2.81,0,*4B
1495522982.68,55316,17.31,74050.5,11.37,3.33,3.11,0,*4D
1495522983.89,55317,17.31,74048.5,11.35,2.99,2.77,0,*4E
1495522985.08,55318,17.31,74046.8,11.35,2.61,2.27,0,*43
1495522986.26,55319,17.31,74050.3,11.35,1.41,1.01,0,*44
1495522987.53,55320,17.31,74046.8,11.37,1.29,0.95,0,*7E
1495522988.74,55321,17.31,74050.5,11.29,0.97,0.59,0,*44
1495522989.97,55322,17.31,74050.3,11.29,1.09,0.95,0,*71
1495522991.18,55323,17.31,74052.0,11.25,1.29,0.97,0,*7C
1495522992.38,55324,17.31,74048.3,11.25,1.55,1.41,0,*4A
1495522993.65,55325,17.31,74046.8,11.27,1.55,1.17,0,*4A
1495522994.88,55326,17.31,74050.3,11.23,0.97,0.79,0,*4B
1495522996.11,55327,17.31,74050.5,11.21,0.95,0.95,0,*48
1495522997.34,55328,17.31,74048.5,11.21,1.71,1.59,0,*4D
1495522998.58,55329,17.31,74050.0,11.21,1.25,1.29,0,*4A
1495522999.85,55330,17.31,74050.0,11.19,1.43,1.37,0,*46
1495523001.06,55331,17.38,74052.3,11.17,1.79,1.71,0,*42
1495523002.26,55332,17.31,74052.0,11.19,0.97,0.97,0,*47
1495523003.51,55333,17.31,74050.3,11.17,1.09,1.21,0,*42
1495523004.74,55334,17.31,74048.0,11.17,1.89,2.01,0,*4C
1495523005.98,55335,17.31,74046.0,11.17,1.63,1.67,0,*4A
1495523007.22,55336,17.31,74048.5,11.19,1.83,1.85,0,*45
1495523008.46,55337,17.31,74048.5,11.17,2.05,2.01,0,*48
1495523009.7,55338,17.31,74050.3,11.17,2.05,2.17,0,*40
1495523010.97,55339,17.31,74048.5,11.19,1.97,2.17,0,*47
1495523012.24,55340,17.31,74048.5,11.19,1.55,1.63,0,*47
1495523013.49,55341,17.31,74050.0,11.17,1.21,1.33,0,*4E
1495523014.73,55342,17.31,74046.0,11.17,1.09,1.17,0,*41
1495523015.97,55343,17.31,74050.5,11.17,1.17,1.29,0,*42
1495523017.18,55344,17.31,74046.3,11.17,0.87,1.05,0,*73
1495523018.39,55345,17.31,74048.5,11.17,1.05,1.21,0,*4F
1495523019.63,55346,17.31,74050.3,11.17,1.43,1.63,0,*48
1495523020.84,55347,17.31,74046.5,11.17,1.79,1.93,0,*4F
1495523022.07,55348,17.31,74044.3,11.17,1.89,2.05,0,*43
1495523023.28,55349,17.31,74046.5,11.17,1.79,1.93,0,*41
1495523024.52,55350,17.31,74046.5,11.17,1.55,1.63,0,*48
1495523025.73,55351,17.31,74048.0,11.17,1.41,1.51,0,*4D
1495523027.0,55352,17.31,74046.0,11.15,1.17,1.21,0,*48
1495523028.26,55353,17.31,74048.3,11.15,1.55,1.71,0,*4A
1495523029.53,55354,17.31,74048.0,11.15,2.05,2.13,0,*4C
1495523030.79,55355,17.31,74048.5,11.15,1.67,1.71,0,*4D
1495523032.03,55356,17.31,74048.3,11.17,1.17,1.29,0,*46
1495523033.24,55357,17.31,74048.3,11.15,0.97,1.05,0,*72
1495523034.5,55358,17.31,74048.8,11.15,0.87,0.83,0,*43
1495523035.71,55359,17.31,74048.5,11.13,1.37,1.41,0,*41
1495523036.96,55360,17.31,74046.3,11.13,1.17,1.29,0,*47
1495523038.2,55361,17.31,74046.5,11.15,1.29,1.41,0,*43
1495523039.41,55362,17.31,74048.0,11.13,1.37,1.41,0,*49
1495523040.65,55363,17.31,74048.5,11.11,1.41,1.37,0,*4A
1495523041.9,55364,17.31,74044.3,11.11,0.83,0.79,0,*49
1495523043.15,55365,17.38,74052.8,11.07,0.13,0.17,0,*4E
1495523044.4,55366,17.31,74048.0,11.07,0.25,0.17,0,*48
1495523045.63,55367,17.31,74044.8,11.05,0.37,0.47,0,*4D
1495523046.83,55368,17.31,74050.0,11.03,0.09,0.09,0,*43
1495523048.04,55369,17.31,74050.0,11.03,0.01,0.13,0,*71
1495523049.27,55370,17.31,74044.0,11.01,0.41,0.29,0,*46
1495523050.45,55371,17.31,74048.3,10.99,0.05,-0.03,0,*62
1495523051.66,55372,17.31,74048.5,10.99,-0.19,-0.11,0,*42
1495523052.83,55373,17.31,74044.0,10.97,0.05,0.05,0,*45
1495523054.01,55374,17.31,74048.0,10.95,0.01,0.01,0,*40
1495523055.22,55375,17.31,74050.0,10.93,0.17,0.21,0,*42
1495523056.43,55376,17.31,74050.5,10.93,0.29,0.33,0,*4F
1495523057.61,55377,17.31,74046.8,10.93,0.43,0.59,0,*4E
1495523058.78,55378,17.31,74046.5,10.93,0.05,0.05,0,*4A
1495523060.02,55379,17.31,74050.0,10.91,0.21,0.29,0,*41
1495523061.23,55380,17.31,74048.8,10.89,0.63,0.75,0,*41
1495523062.45,55381,17.31,74044.5,10.89,0.55,0.63,0,*42
1495523063.65,55382,17.31,74048.8,10.89,0.17,0.37,0,*46
1495523064.84,55383,17.38,74050.3,10.89,-0.07,0.13,0,*5D
1495523066.02,55384,17.31,74048.3,10.85,-0.41,-0.29,0,*40
1495523067.22,55385,17.31,74046.0,10.81,-0.33,-0.27,0,*4E
1495523068.4,55386,17.31,74046.8,10.81,-0.57,-0.33,0,*4A
1495523069.61,55387,17.31,74044.0,10.79,0.29,0.43,0,*42
1495523070.85,55388,17.38,74048.5,10.79,0.17,0.29,0,*4C
1495523072.03,55389,17.31,74046.0,10.77,-0.19,-0.07,0,*71
1495523073.19,55390,17.31,74046.0,10.77,-0.15,0.09,0,*56
1495523074.39,55391,17.31,74046.5,10.75,-0.15,-0.03,0,*72
1495523075.6,55392,17.31,74044.8,10.75,-0.77,-0.53,0,*40
1495523076.8,55393,17.31,74050.3,10.73,-0.23,-0.03,0,*73
1495523077.99,55394,17.31,74044.3,10.73,-0.03,0.37,0,*5C
1495523079.2,55395,17.31,74046.5,10.73,0.13,0.37,0,*41
1495523080.39,55396,17.38,74050.8,10.69,-0.65,-0.37,0,*48
1495523081.59,55397,17.38,74048.0,10.69,-0.89,-0.57,0,*4D
1495523082.8,55398,17.31,74048.3,10.67,-1.09,-0.81,0,*7E
1495523084.01,55399,17.31,74050.3,10.63,-0.23,-0.11,0,*4B
1495523085.23,55400,17.38,74054.0,10.63,0.21,0.47,0,*4D
1495523086.41,55401,17.31,74048.3,10.63,0.01,0.25,0,*7A
1495523087.63,55402,17.31,74046.5,10.63,-0.97,-0.73,0,*45
1495523088.81,55403,17.31,74048.5,10.59,-0.81,-0.57,0,*4C
1495523090.0,55404,17.31,74046.5,10.59,-0.57,-0.29,0,*49
1495523091.17,55405,17.31,74050.0,10.55,-0.61,-0.45,0,*4B
1495523092.38,55406,17.31,74048.5,10.55,-0.85,-0.61,0,*44
1495523093.61,55407,17.38,74048.3,10.53,-0.85,-0.65,0,*47
1495523094.84,55408,17.31,74046.0,10.51,-1.13,-0.93,0,*7D
1495523096.1,55409,17.31,74046.0,10.49,-1.13,-0.89,0,*7E
1495523097.33,55410,17.31,74046.3,10.47,-1.21,-1.05,0,*4C
1495523098.52,55411,17.31,74048.5,10.47,-0.41,-0.19,0,*46
1495523099.72,55412,17.31,74048.0,10.45,-0.07,0.09,0,*69
1495523100.96,55413,17.31,74046.0,10.45,0.33,0.55,0,*4B
1495523102.2,55414,17.31,74046.0,10.45,0.17,0.21,0,*49
1495523103.43,55415,17.31,74044.3,10.45,0.17,0.17,0,*4D
1495523104.66,55416,17.31,74044.8,10.41,-0.33,-0.27,0,*4F
1495523105.87,55417,17.31,74044.3,10.41,-0.11,-0.03,0,*78
1495523107.07,55418,17.38,74048.3,10.41,-0.57,-0.61,0,*41
1495523108.34,55419,17.31,74046.0,10.41,-1.01,-1.01,0,*45
1495523109.6,55420,17.38,74048.3,10.37,-1.05,-1.13,0,*49
1495523110.83,55421,17.38,74048.3,10.37,-1.17,-1.29,0,*42
1495523112.04,55422,17.31,74044.3,10.33,-1.43,-1.55,0,*4F
1495523113.27,55423,17.31,74048.0,10.33,-0.93,-1.05,0,*77
1495523114.54,55424,17.31,74048.0,10.31,-1.01,-1.13,0,*4F
1495523115.76,55425,17.31,74048.8,10.29,-1.79,-2.03,0,*4A
1495523116.96,55426,17.38,74052.0,10.25,-0.81,-0.97,0,*4C
1495523118.16,55427,17.38,74048.0,10.25,-0.57,-0.97,0,*46
1495523119.36,55428,17.31,74048.0,10.25,-0.69,-0.93,0,*40
1495523120.56,55429,17.31,74044.5,10.25,-1.21,-1.51,0,*43
1495523121.8,55430,17.31,74046.0,10.21,-1.09,-1.43,0,*46
1495523123.01,55431,17.31,74048.3,10.21,-0.93,-1.25,0,*75
1495523124.21,55432,17.31,74048.0,10.17,-0.65,-0.97,0,*42
1495523125.46,55433,17.38,74050.0,10.17,-1.05,-1.39,0,*41
1495523126.71,55434,17.31,74046.8,10.15,-1.43,-1.75,0,*4E
1495523127.95,55435,17.31,74042.8,10.13,-1.01,-1.43,0,*4A
1495523129.2,55436,17.31,74048.0,10.11,-1.05,-1.55,0,*48
1495523130.4,55437,17.38,74046.0,10.09,-1.21,-1.59,0,*4A
1495523131.65,55438,17.31,74042.8,10.07,-1.35,-1.71,0,*44
1495523132.88,55439,17.31,74044.5,10.07,-1.71,-2.15,0,*44
1495523134.1,55440,17.31,74042.8,10.03,-2.15,-2.55,0,*4B
1495523135.32,55441,17.31,74046.0,10.03,-1.43,-1.79,0,*47
1495523136.56,55442,17.31,74046.3,10.01,-1.47,-1.79,0,*42
1495523137.8,55443,17.31,74044.5,9.99,-1.13,-1.35,0,*73
1495523139.01,55444,17.31,74042.0,9.99,-0.89,-1.21,0,*43
1495523140.25,55445,17.38,74046.8,9.95,-0.97,-1.35,0,*44
1495523141.47,55446,17.31,74040.3,9.95,-1.35,-1.75,0,*7A
1495523142.7,55447,17.38,74044.8,9.93,-0.69,-1.13,0,*45
1495523143.93,55448,17.38,74044.5,9.93,-1.51,-1.99,0,*72
1495523145.17,55449,17.31,74046.5,9.93,-1.13,-1.55,0,*75
1495523146.42,55450,17.31,74046.5,9.89,-1.21,-1.83,0,*7C
1495523147.68,55451,17.38,74046.8,9.89,-1.47,-2.03,0,*76
1495523148.93,55452,17.31,74044.5,9.89,-1.33,-1.83,0,*7D
1495523150.16,55453,17.31,74042.8,9.87,-1.35,-1.95,0,*73
1495523151.37,55454,17.38,74046.0,9.85,-0.77,-1.29,0,*46
1495523152.58,55455,17.31,74042.0,9.87,-0.57,-1.09,0,*45
1495523153.82,55456,17.38,74048.0,9.85,-0.81,-1.35,0,*40
1495523155.02,55457,17.31,74044.3,9.83,-0.93,-1.51,0,*46
1495523156.25,55458,17.38,74046.5,9.83,-1.05,-1.67,0,*72
1495523157.46,55459,17.38,74044.3,9.81,-1.17,-1.79,0,*7D
1495523158.7,55460,17.38,74046.5,9.81,-0.97,-1.59,0,*4C
1495523159.92,55461,17.31,74040.8,9.81,-1.17,-1.79,0,*76
1495523161.14,55462,17.31,74044.5,9.79,-1.71,-2.47,0,*7C
1495523162.4,55463,17.31,74042.5,9.77,-1.95,-2.71,0,*7C
1495523163.61,55464,17.38,74044.8,9.73,-1.67,-2.27,0,*71
1495523164.83,55465,17.38,74044.3,9.71,-1.13,-1.67,0,*76
1495523166.01,55466,17.38,74046.8,9.71,-1.67,-2.23,0,*75
1495523167.23,55467,17.31,74044.3,9.71,-1.13,-1.75,0,*77
1495523168.44,55468,17.31,74044.0,9.69,-1.21,-1.79,0,*7C
1495523169.66,55469,17.31,74044.3,9.67,-1.09,-1.51,0,*73
1495523170.84,55470,17.31,74044.5,9.67,-0.57,-1.17,0,*43
1495523172.05,55471,17.31,74046.3,9.69,-0.69,-1.29,0,*4C
1495523173.27,55472,17.38,74044.0,9.65,-1.21,-1.63,0,*70
1495523174.53,55473,17.31,74042.8,9.65,-1.09,-1.47,0,*7D
1495523175.8,55474,17.38,74044.8,9.65,-1.09,-1.47,0,*7A
1495523177.03,55475,17.31,74044.5,9.63,-1.47,-1.91,0,*7C
1495523178.25,55476,17.31,74044.3,9.63,-1.67,-1.99,0,*75
1495523179.44,55477,17.38,74046.8,9.63,-1.29,-1.63,0,*7B
1495523180.66,55478,17.38,74044.3,9.61,-1.29,-1.51,0,*77
1495523181.87,55479,17.31,74044.3,9.59,-0.97,-1.29,0,*46
1495523183.05,55480,17.38,74044.0,9.59,-0.57,-0.81,0,*7F
1495523184.23,55481,17.31,74042.5,9.59,-0.65,-0.81,0,*7F
1495523185.46,55482,17.31,74040.3,9.61,-1.35,-1.59,0,*77
1495523186.65,55483,17.31,74040.8,9.59,-1.59,-1.67,0,*7A
1495523187.85,55484,17.31,74044.3,9.59,-0.77,-0.93,0,*7A
1495523189.09,55485,17.31,74042.8,9.59,-1.05,-1.09,0,*7D
1495523190.28,55486,17.38,74044.5,9.59,-1.21,-1.29,0,*7A
1495523191.54,55487,17.38,74044.3,9.57,-1.01,-1.09,0,*75
1495523192.73,55488,17.38,74044.5,9.55,-0.73,-0.73,0,*70
1495523193.94,55489,17.31,74046.5,9.57,-0.81,-0.81,0,*73
1495523195.19,55490,17.31,74044.3,9.57,-1.09,-0.97,0,*4D
1495523196.45,55491,17.38,74044.3,9.57,-1.13,-1.09,0,*71
1495523197.68,55492,17.31,74042.8,9.55,-1.13,-1.13,0,*7B
1495523198.9,55493,17.38,74046.5,9.55,-1.09,-0.97,0,*4C
1495523200.15,55494,17.38,74046.0,9.53,-0.89,-0.85,0,*77
1495523201.41,55495,17.31,74040.0,9.53,-1.13,-0.89,0,*48
1495523202.64,55496,17.38,74044.3,9.53,-1.47,-1.25,0,*7D
1495523203.85,55497,17.31,74042.0,9.49,-1.63,-1.33,0,*76
1495523205.09,55498,17.38,74044.8,9.49,-1.43,-1.17,0,*7D
1495523206.31,55499,17.38,74044.0,9.49,-1.33,-1.17,0,*7B
1495523207.51,55500,17.38,74046.3,9.49,-1.55,-1.33,0,*7C
1495523208.7,55501,17.31,74046.0,9.47,-1.55,-1.21,0,*70
1495523209.91,55502,17.31,74046.5,9.47,-1.33,-1.01,0,*71
1495523211.12,55503,17.31,74044.5,9.45,-1.59,-1.21,0,*7C
1495523212.36,55504,17.38,74046.0,9.45,-1.09,-0.61,0,*4B
1495523213.59,55505,17.31,74044.3,9.45,-0.97,-0.49,0,*76
1495523214.83,55506,17.31,74044.0,9.45,-0.81,-0.27,0,*7A
1495523216.05,55507,17.38,74044.8,9.45,-0.19,0.37,0,*56
1495523217.28,55508,17.38,74050.0,9.45,-0.19,0.29,0,*56
1495523218.5,55509,17.31,74042.5,9.47,-0.23,0.21,0,*54
1495523219.74,55510,17.38,74050.5,9.45,-0.73,-0.27,0,*70
1495523220.97,55511,17.38,74050.0,9.45,-0.85,-0.37,0,*79
1495523222.21,55512,17.38,74046.3,9.45,-0.85,-0.45,0,*7F
1495523223.44,55513,17.38,74046.5,9.45,-0.85,-0.37,0,*7B
1495523224.67,55514,17.38,74044.8,9.45,-0.73,-0.23,0,*70
1495523225.93,55515,17.38,74044.3,9.45,-0.85,-0.27,0,*7C
1495523227.18,55516,17.38,74046.3,9.45,-0.85,-0.27,0,*7F
1495523228.41,55517,17.38,74046.0,9.43,-1.05,-0.49,0,*49
1495523229.59,55518,17.38,74046.3,9.43,-0.81,-0.33,0,*76
1495523230.81,55519,17.31,74040.3,9.41,-1.29,-0.65,0,*45
1495523232.02,55520,17.31,74044.3,9.41,-1.17,-0.53,0,*47
1495523233.26,55521,17.38,74042.8,9.41,-1.01,-0.45,0,*46
1495523234.47,55522,17.31,74040.3,9.39,-1.21,-0.65,0,*4A
1495523235.67,55523,17.38,74042.5,9.39,-1.21,-0.45,0,*49
1495523236.87,55524,17.38,74042.3,9.37,-1.51,-0.89,0,*47
1495523238.08,55525,17.38,74040.0,9.37,-1.63,-1.05,0,*72
1495523239.25,55526,17.38,74044.0,9.37,-0.65,0.05,0,*6A
1495523240.45,55527,17.38,74042.3,9.35,-0.19,0.43,0,*50
1495523241.68,55528,17.38,74040.5,9.35,-1.47,-0.73,0,*4B
1495523242.9,55529,17.38,74040.8,9.35,-1.17,-0.49,0,*46
1495523244.1,55530,17.31,74040.3,9.33,-1.35,-0.61,0,*42
1495523245.29,55531,17.38,74044.0,9.33,-1.17,-0.45,0,*45
1495523246.51,55532,17.38,74044.8,9.33,-0.93,-0.23,0,*7B
1495523247.74,55533,17.38,74048.0,9.31,-1.51,-0.85,0,*4B
1495523248.95,55534,17.38,74044.8,9.27,-1.25,-0.53,0,*43
1495523250.18,55535,17.31,74046.0,9.27,-1.67,-1.01,0,*72
1495523251.4,55536,17.38,74046.5,9.27,-0.45,0.29,0,*56
1495523252.63,55537,17.38,74046.0,9.27,-0.19,0.47,0,*56
1495523253.83,55538,17.38,74044.3,9.27,-0.69,-0.07,0,*47
1495523255.01,55539,17.38,74044.8,9.25,-0.53,0.09,0,*6E
1495523256.25,55540,17.38,74048.0,9.27,0.55,1.29,0,*4A
1495523257.46,55541,17.38,74048.5,9.31,0.01,0.59,0,*4B
1495523258.71,55542,17.38,74046.8,9.31,-0.23,0.51,0,*5D
1495523259.92,55543,17.38,74046.8,9.31,-0.15,0.41,0,*58
1495523261.12,55544,17.38,74048.0,9.27,-0.53,0.05,0,*6A
1495523262.34,55545,17.38,74046.3,9.27,-0.29,0.37,0,*57
1495523263.55,55546,17.38,74048.3,9.27,-0.77,-0.15,0,*72
1495523264.75,55547,17.38,74048.3,9.25,-0.37,0.21,0,*5F
1495523265.95,55548,17.38,74050.3,9.25,-0.29,0.17,0,*5A
1495523267.16,55549,17.38,74048.3,9.23,-0.29,0.17,0,*5D
1495523268.33,55550,17.38,74048.5,9.25,-0.49,0.05,0,*66
1495523269.54,55551,17.31,74042.8,9.23,-0.81,-0.33,0,*7D
1495523270.79,55552,17.38,74048.8,9.23,-0.23,0.33,0,*5B
1495523272.01,55553,17.38,74044.0,9.21,0.25,0.75,0,*71
1495523273.22,55554,17.38,74046.8,9.23,0.01,0.51,0,*44
1495523274.44,55555,17.38,74044.3,9.23,-0.11,0.51,0,*59
1495523275.66,55556,17.38,74046.3,9.23,0.05,0.63,0,*43
1495523276.85,55557,17.38,74044.8,9.21,-0.29,0.33,0,*56
1495523278.03,55558,17.38,74048.0,9.21,-0.57,-0.07,0,*4A
1495523279.21,55559,17.31,74040.3,9.21,-0.11,0.43,0,*54
1495523280.42,55560,17.38,74044.3,9.21,0.29,0.67,0,*7E
1495523281.64,55561,17.38,74044.3,9.21,0.67,1.37,0,*41
1495523282.84,55562,17.38,74046.0,9.21,0.97,1.63,0,*4C
1495523284.06,55563,17.38,74044.5,9.21,0.91,1.29,0,*45
1495523285.32,55564,17.38,74046.5,9.23,1.09,1.59,0,*77
1495523286.54,55565,17.38,74048.3,9.25,1.67,2.25,0,*70
1495523287.75,55566,17.38,74048.5,9.25,1.33,1.79,0,*78
1495523288.99,55567,17.38,74050.5,9.27,1.33,1.79,0,*7B
1495523290.24,55568,17.31,74044.3,9.27,0.95,1.37,0,*43
1495523291.47,55569,17.38,74050.8,9.27,0.67,1.13,0,*49
1495523292.71,55570,17.31,74042.8,9.27,0.47,0.79,0,*7E
1495523293.91,55571,17.38,74046.5,9.27,-0.37,-0.07,0,*41
1495523295.13,55572,17.38,74048.0,9.27,-0.29,0.17,0,*51
1495523296.33,55573,17.38,74046.3,9.25,-0.19,0.17,0,*51
1495523297.51,55574,17.38,74044.8,9.25,-0.41,-0.15,0,*74
1495523298.75,55575,17.38,74046.3,9.23,0.13,0.51,0,*74
1495523299.97,55576,17.38,74044.8,9.23,-0.07,0.41,0,*6E
1495523301.18,55577,17.38,74048.0,9.21,0.25,0.75,0,*77
1495523302.43,55578,17.38,74048.8,9.19,0.47,0.87,0,*7A
1495523303.62,55579,17.38,74044.5,9.21,0.43,0.87,0,*74
1495523304.82,55580,17.31,74044.3,9.21,0.13,0.33,0,*78
1495523306.06,55581,17.38,74046.3,9.19,0.37,0.75,0,*76
1495523307.29,55582,17.38,74046.5,9.21,0.95,1.37,0,*41
1495523308.49,55583,17.38,74044.8,9.21,0.97,1.25,0,*41
1495523309.72,55584,17.38,74050.5,9.21,1.09,1.47,0,*74
1495523310.95,55585,17.38,74046.8,9.21,1.47,1.85,0,*71
1495523312.15,55586,17.38,74044.5,9.21,1.75,2.21,0,*7E
1495523313.37,55587,17.38,74044.8,9.23,1.85,2.31,0,*73
1495523314.6,55588,17.38,74048.8,9.25,2.13,2.47,0,*77
1495523315.83,55589,17.38,74046.5,9.25,2.05,2.47,0,*71
1495523317.05,55590,17.38,74048.8,9.27,1.89,2.27,0,*7A
1495523318.3,55591,17.38,74048.3,9.31,1.33,1.67,0,*7A
1495523319.53,55592,17.38,74046.5,9.31,1.05,1.33,0,*7D
1495523320.77,55593,17.38,74046.0,9.31,0.95,1.21,0,*47